Location: *
(48.8667°N, 2.3331°E)
Time: 03:16:45
(UTC+00:00)

FREGAT/IRIS - Pass Details

Date: 09 April 2020
Orbit: 326 x 331 km, 96.9° (Epoch: 06 June)

Event Time Altitude Azimuth Distance (km) Brightness Sun altitude
Rises 19:09:28 0° 162° (SSE) 2,107 5.9 -6.4°
Reaches altitude 10° 19:11:21 10° 160° (SSE) 1,278 4.8 -6.7°
Maximum altitude 19:14:03 70° 76° (ENE) 366 2.3 -7.1°
Drops below altitude 10° 19:16:48 10° 352° (N) 1,299 5.7 -7.5°
Sets 19:18:44 0° 350° (N) 2,147 6.8 -7.8°
